CZ-6A DEB, 54893

Orbit data source: Space-Track

CZ-6A DEB, 54893 is space debris in SSO originally from a launch on Fri, 11 Nov 2022 UTC launched from the Taiyaun Space Center, China (TSC). Debris objects in space refer to the collection of defunct objects orbiting the Earth. Examples of debris include non-operational satellites, rocket bodies, and fragments generated from explosions, collisions, or faulty payload assembly.

Loading next visibility...
Identifier
54893, 2022-151QE
Orbit
SSO
Country
Flag of CNCN / PRC
Related business
Manufacturer
SAST
Mission
Spacecraft
Bus & Motor
Unknown
Mass
Unknown
Launch date (UTC)
2022-11-11 (4 years ago)
Launch vehicle
Unknown
Launch site
Taiyaun Space Center, China (TSC)
Object type
Payload
Rocket body
Debris
Shape & HBR
Unknown shape, 0.1 m
Radar Cross Section
Small (<0.1 m²)

Expand to show TLE details & history
Last TLE update: 2 days ago

TLE from 2 days ago
0 CZ-6A DEB
1 54893U 22151QE  26171.38470029  .00001384  00000-0  39447-3 0  9996
2 54893  98.6181 215.5001 0066498 276.9734  82.3897 14.45642607186662
Epoch: 2026-06-20T09:13Z
TLE epoch observation values (Epoch: 2026-06-20T09:13:58.105Z)
Latitude
0.00006°
Longitude
168.4079°
Altitude
736.908 km
Speed
7.49 km/s
True Right ascension
14h 22m 00s
True Declination
0° 00' 00"
Sunlit
Object was in full shadow at epoch
Visualization orbit readout
Latitude
Unknown
Longitude
Unknown
Altitude
Unknown
Speed
Unknown
Apparent Right ascension
Unknown
Apparent Declination
Unknown
Sunlit
N/A
Visualization observer readout
Local Sidereal Time
21:35:06
Azimuth
Unknown
Elevation
Unknown
Doppler factor
Unknown
Orbital elements
Apogee altitude
784.35 km
Perigee altitude
689.721 km
Semi-major axis
7,115.173 km
Eccentricity
0.00665
Inclination
98.6181°
RAAN
215.5001°
Arg. of periapsis
276.9734°
True anomaly
83.14581°
Mean anomaly
82.3897°
Eccentric anomaly
82.76767°
Mean motion
3.6163 °/min
Orbital period
99.55 mins
BSTAR
0.00039447
Loading maneuver chart data...
Computing Atmospheric mass density...
Loading historical data...
Loading historical data...
Loading historical data...
Loading historical data...
Loading historical data...
Loading historical data...
Loading historical data...

Documentation

Showing up to 5 results
|